Regional Weather Roundup
Issued by NWS

Home | Current Version | Previous Version | Graphics & Text | Print | Product List | Glossary On
Versions: 1 2 3 4 5 6 7 8 9 10 11 12 13 14 15 16 17 18 19 20 21 22 23 24 25 26 27 28 29 30 31 32 33 34 35 36 37 38 39 40 41 42 43 44 45 46 47 48 49 50
000
ASUS45 KSLC 131910
RWRUT

UTAH REGIONAL WEATHER ROUNDUP
NATIONAL WEATHER SERVICE SALT LAKE CITY UT
100 PM MDT SUN JUL 13 2014

UTZ001>011-023>025-132000-

NORTHERN UTAH

CITY           SKY/WX    TMP DP  RH WIND       PRES   REMARKS
HILL AFB       SUNNY     89  53  29 VRB3      30.23F
LOGAN          NOT AVBL
OGDEN          NOT AVBL
PROVO AIRPORT  MOSUNNY   86  57  37 SW6       30.21F
SALT LAKE CITY MOSUNNY   92  50  23 NW8       30.17F
VERNAL         NOT AVBL
WENDOVER       NOT AVBL
HEBER CITY     SUNNY     88  45  22 NW3       30.28F

$$

UTZ012>022-026-027-132000-

SOUTHERN UTAH

CITY           SKY/WX    TMP DP  RH WIND       PRES   REMARKS
CEDAR CITY     NOT AVBL
MILFORD        NOT AVBL
MOAB/CYNLANDS  NOT AVBL
PRICE          NOT AVBL
ST GEORGE      NOT AVBL

$$

REGIONAL REPORTS     COLORADO/ARIZONA

CITY           SKY/WX    TMP DP  RH WIND       PRES   REMARKS
CRAIG, CO      MOSUNNY   78  48  34 E5        30.33F
GRAND JUNCTION SUNNY     91  48  22 SW8       30.17F
RIFLE          SUNNY     88  48  25 CALM      30.24F
MONTROSE       SUNNY     89  49  25 MISG      30.27F
CORTEZ         SUNNY     89  49  25 SW9       30.27F
PAGE, AZ       SUNNY     97  49  19 MISG      30.12F HX  94
GRAND CANYON   MOSUNNY   87  45  23 NE13G20   30.33F
KINGMAN        PTSUNNY   93  46  19 E6        30.06S
FLAGSTAFF      PTSUNNY   79  47  32 E8        30.37F

$$

REGIONAL REPORTS    NEVADA/IDAHO/WYOMING

CITY           SKY/WX    TMP DP  RH WIND       PRES   REMARKS
LAS VEGAS, NV  MOSUNNY  106  34   8 MISG      29.89F HX  99
ELY            NOT AVBL
ELKO           SUNNY     94  44  17 E6        30.22F HX  90
POCATELLO, ID  NOT AVBL
EVANSTON, WY   NOT AVBL
ROCK SPRINGS   NOT AVBL

$$



USA.gov is the U.S. government's official web portal to all federal, state and local government web resources and services.